Wellsville, NY

7:00 AM EDT on October 19, 2019 (GMT -0400)
Wellsville Municipal-Tarantine

Weather History for KELZ - August, 2019

Change the Weather History Date:

Thursday, August 22, 2019

  Actual Average (WUND) Record (WUND)
Temperature  
Mean Temperature 60 °F -  
Max Temperature 66 °F - - (-1)
Min Temperature 54 °F - - (-1)
Degree Days  
Heating Degree Days 5    
Growing Degree Days 10 (Base 50)    
Moisture  
Dew Point 61 °F    
Average Humidity 90    
Maximum Humidity 100    
Minimum Humidity 68    
Precipitation  
Precipitation 0.08 in - - ()
Sea Level Pressure  
Sea Level Pressure 29.97 in    
Wind  
Wind Speed 6 mph ()    
Max Wind Speed 10 mph    
Max Gust Speed 17 mph    
Visibility 7.6 miles    
Events Fog , Rain    
Averages and records for this station are not official NWS values.
T = Trace of Precipitation, MM = Missing Value Source: Averaged Metar Reports

Daily Weather History Graph

Daily Weather History Graph

Search for Another Location

Airport or City:

Astronomy

Aug. 22, 2019 Rise Set
Actual Time 6:26 AM EDT 8:02 PM EDT
Civil Twilight 5:57 AM EDT 8:31 PM EDT
Nautical Twilight 5:21 AM EDT 9:07 PM EDT
Astronomical Twilight 4:43 AM EDT 9:45 PM EDT
Moon 11:43 PM EDT (8/22) 1:07 PM EDT (8/22)
Length of Visible Light 14h 34m
Length of Day
13h 35m
Waning Gibbous, 60% of the Moon is Illuminated
Aug 22
Waning Gibbous
Aug 23
Last Quarter
Aug 30
New
Sep 5
First Quarter
Sep 14
Full

Hourly Weather History & Observations

Time (EDT) Temp. Dew Point Humidity Pressure Visibility Wind Dir Wind Speed Gust Speed Precip Events Conditions
12:56 AM 64.9 °F 64.0 °F 97% 29.94 in 10.0 mi WSW 6.9 mph - N/A   Clear
1:56 AM 64.9 °F 64.0 °F 97% 29.92 in 9.0 mi SW 6.9 mph - N/A   Clear
2:56 AM 64.9 °F 64.0 °F 97% 29.90 in 10.0 mi WSW 6.9 mph - N/A   Scattered Clouds
3:56 AM 64.9 °F 64.0 °F 97% 29.89 in 9.0 mi SW 5.8 mph - N/A   Partly Cloudy
4:35 AM 66.0 °F 64.9 °F 96% 29.93 in 6.0 mi WSW 9.2 mph - N/A   Scattered Clouds
4:44 AM 66.0 °F 64.9 °F 96% 29.94 in 5.0 mi WSW 9.2 mph - N/A   Mostly Cloudy
4:56 AM 66.0 °F 64.9 °F 96% 29.90 in 4.0 mi WSW 10.4 mph 17.3 mph N/A   Overcast
5:17 AM 66.0 °F 64.9 °F 96% 29.95 in 5.0 mi WSW 6.9 mph - N/A   Mostly Cloudy
5:56 AM 66.0 °F 66.0 °F 100% 29.92 in 5.0 mi WSW 6.9 mph - N/A   Overcast
6:10 AM 66.0 °F 66.0 °F 100% 29.96 in 6.0 mi WSW 5.8 mph - N/A   Overcast
6:17 AM 66.0 °F 66.0 °F 100% 29.96 in 6.0 mi WSW 4.6 mph - N/A   Overcast
6:26 AM 66.0 °F 66.0 °F 100% 29.96 in 6.0 mi SW 4.6 mph - N/A   Mostly Cloudy
6:35 AM 66.0 °F 66.0 °F 100% 29.96 in 6.0 mi West 5.8 mph - 0.00 in Rain Light Rain
6:40 AM 66.9 °F 66.0 °F 97% 29.96 in 6.0 mi West 4.6 mph - 0.00 in   Overcast
6:56 AM 66.0 °F 66.0 °F 100% 29.94 in 3.0 mi WNW 5.8 mph - 0.00 in   Overcast
7:01 AM 66.0 °F 66.0 °F 100% 29.97 in 1.8 mi NW 8.1 mph - 0.01 in Rain Light Rain
7:12 AM 66.0 °F 66.0 °F 100% 29.98 in 0.5 mi NW 6.9 mph - 0.08 in Fog , Rain Heavy Rain
7:21 AM 66.0 °F 66.0 °F 100% 29.97 in 2.0 mi NW 5.8 mph - 0.08 in Rain Light Rain
7:28 AM 66.0 °F 66.0 °F 100% 29.97 in 5.0 mi NW 5.8 mph - 0.08 in Rain Light Rain
7:56 AM 66.0 °F 66.0 °F 100% 29.96 in 4.0 mi NW 8.1 mph - 0.08 in   Overcast
8:29 AM 63.0 °F 62.1 °F 97% 29.99 in 9.0 mi NNW 9.2 mph - N/A   Mostly Cloudy
8:38 AM 63.0 °F 61.0 °F 93% 29.99 in 10.0 mi NNW 9.2 mph - N/A   Scattered Clouds
8:56 AM 63.0 °F 60.1 °F 90% 29.98 in 10.0 mi NW 8.1 mph - N/A   Scattered Clouds
9:05 AM 62.1 °F 60.1 °F 93% 30.00 in 10.0 mi NNW 4.6 mph - N/A   Mostly Cloudy
9:56 AM 63.0 °F 59.0 °F 87% 29.99 in 10.0 mi NNW 5.8 mph - N/A   Overcast
10:56 AM 66.0 °F 55.9 °F 70% 29.99 in 10.0 mi Variable 3.5 mph - N/A   Overcast
11:56 AM 64.0 °F 55.9 °F 75% 30.01 in 10.0 mi North 5.8 mph - N/A   Overcast
12:56 PM 64.0 °F 55.9 °F 75% 30.01 in 10.0 mi NNW 4.6 mph - N/A   Overcast
1:56 PM 66.0 °F 55.0 °F 68% 30.00 in 10.0 mi NW 9.2 mph - N/A   Partly Cloudy
2:56 PM 66.9 °F 55.9 °F 68% 29.99 in 10.0 mi NNW 8.1 mph - N/A   Mostly Cloudy
3:56 PM 64.9 °F 55.0 °F 70% 29.99 in 10.0 mi WNW 8.1 mph - N/A   Overcast
4:56 PM 64.9 °F 55.0 °F 70% 29.99 in 10.0 mi NNW 8.1 mph - 0.00 in   Mostly Cloudy
5:56 PM 64.0 °F 54.0 °F 70% 30.00 in 10.0 mi NW 5.8 mph - N/A   Overcast
6:56 PM 63.0 °F 54.0 °F 72% 30.00 in 10.0 mi NW 5.8 mph - N/A   Mostly Cloudy
7:56 PM 59.0 °F 53.1 °F 81% 30.00 in 10.0 mi West 5.8 mph - N/A   Clear
8:56 PM 57.0 °F 53.1 °F 87% 30.03 in 10.0 mi West 6.9 mph - N/A   Clear
9:56 PM 55.0 °F 53.1 °F 93% 30.05 in 10.0 mi West 4.6 mph - N/A   Clear
10:56 PM 54.0 °F 53.1 °F 97% 30.04 in 10.0 mi Calm Calm - N/A   Clear
11:56 PM 55.0 °F 53.1 °F 93% 30.05 in 10.0 mi Calm Calm - N/A   Clear